N388PD SAWH-SCNT

Flight info

Callsign N388PD
Flight time 0h 51m
Altitude 36000
Route ROMIV2B ROMIV UL670 ALMIR DCT NAS DCT SIRUN SIRUN3
Aircraft C750/M-SBDE3FGHRWXY/S

Departure

Time 2026-04-30 12:22
Airport Ushuaia - Malvinas Argentinas International Airport (SAWH)

Arrival

Time 2026-04-30 13:13
Airport Lieutenant Julio Gallardo Airport (SCNT)
Time Latitude Longitude Altitude Speed Heading
2026-04-30 11:47 -54.84132 -68.30532 105 ft 0 kts 176°
2026-04-30 12:15 -54.84133 -68.30533 105 ft 0 kts 185°
2026-04-30 12:16 -54.84135 -68.30540 105 ft 1 kts 233°
2026-04-30 12:16 -54.84136 -68.30584 123 ft 7 kts 268°
2026-04-30 12:16 -54.84139 -68.30652 105 ft 2 kts 251°
2026-04-30 12:16 -54.84170 -68.30669 105 ft 10 kts 173°
2026-04-30 12:17 -54.84214 -68.30769 105 ft 7 kts 265°
2026-04-30 12:17 -54.84219 -68.30886 106 ft 13 kts 265°
2026-04-30 12:17 -54.84263 -68.30966 106 ft 10 kts 179°
2026-04-30 12:18 -54.84357 -68.30949 108 ft 13 kts 152°
2026-04-30 12:18 -54.84379 -68.30812 106 ft 14 kts 86°
2026-04-30 12:18 -54.84372 -68.30634 104 ft 16 kts 86°
2026-04-30 12:18 -54.84365 -68.30438 103 ft 16 kts 86°
2026-04-30 12:19 -54.84356 -68.30205 101 ft 23 kts 86°
2026-04-30 12:19 -54.84344 -68.29895 103 ft 28 kts 86°
2026-04-30 12:19 -54.84329 -68.29520 104 ft 34 kts 86°
2026-04-30 12:19 -54.84314 -68.29116 101 ft 32 kts 86°
2026-04-30 12:20 -54.84301 -68.28761 97 ft 28 kts 86°
2026-04-30 12:20 -54.84287 -68.28443 97 ft 26 kts 85°
2026-04-30 12:20 -54.84272 -68.28089 97 ft 31 kts 84°
2026-04-30 12:20 -54.84251 -68.27820 98 ft 12 kts 114°
2026-04-30 12:21 -54.84268 -68.27810 99 ft 1 kts 223°
2026-04-30 12:21 -54.84265 -68.27854 99 ft 11 kts 269°
2026-04-30 12:21 -54.84287 -68.28423 97 ft 94 kts 266°
2026-04-30 12:21 -54.84346 -68.29893 171 ft 139 kts 265°
2026-04-30 12:22 -54.84420 -68.31607 685 ft 146 kts 264°
2026-04-30 12:22 -54.84512 -68.33337 1325 ft 143 kts 262°
2026-04-30 12:22 -54.84671 -68.35050 1893 ft 147 kts 249°
2026-04-30 12:22 -54.85226 -68.36519 2645 ft 145 kts 227°
2026-04-30 12:23 -54.86065 -68.37465 3330 ft 144 kts 200°
2026-04-30 12:23 -54.87043 -68.37772 3960 ft 136 kts 179°
2026-04-30 12:23 -54.87914 -68.37444 4324 ft 127 kts 159°
2026-04-30 12:23 -54.88695 -68.36619 4655 ft 140 kts 143°
2026-04-30 12:24 -54.89305 -68.35210 5195 ft 152 kts 118°
2026-04-30 12:24 -54.89527 -68.33446 5918 ft 151 kts 95°
2026-04-30 12:24 -54.89338 -68.31620 6511 ft 157 kts 78°
2026-04-30 12:24 -54.89053 -68.29786 7190 ft 158 kts 80°
2026-04-30 12:25 -54.88773 -68.27914 7860 ft 162 kts 79°
2026-04-30 12:25 -54.88475 -68.26003 8571 ft 166 kts 79°
2026-04-30 12:25 -54.88169 -68.24044 9261 ft 170 kts 79°
2026-04-30 12:25 -54.87854 -68.22044 9876 ft 173 kts 79°
2026-04-30 12:26 -54.87541 -68.20050 10505 ft 173 kts 79°
2026-04-30 12:26 -54.87221 -68.18011 11022 ft 176 kts 79°
2026-04-30 12:26 -54.86893 -68.15928 11627 ft 179 kts 78°
2026-04-30 12:26 -54.86568 -68.13873 12287 ft 170 kts 79°
2026-04-30 12:27 -54.86340 -68.11856 12775 ft 173 kts 97°
2026-04-30 12:27 -54.86605 -68.09802 13175 ft 184 kts 111°
2026-04-30 12:27 -54.86969 -68.07517 13416 ft 209 kts 109°
2026-04-30 12:27 -54.87359 -68.04939 13675 ft 233 kts 109°
2026-04-30 12:28 -54.87801 -68.02079 13916 ft 257 kts 109°
2026-04-30 12:28 -54.88282 -67.98991 14097 ft 281 kts 108°
2026-04-30 12:28 -54.88814 -67.95564 14189 ft 306 kts 108°
2026-04-30 12:28 -54.89394 -67.91853 14232 ft 330 kts 108°
2026-04-30 12:29 -54.90060 -67.87920 14240 ft 348 kts 113°
2026-04-30 12:29 -54.91329 -67.84560 14226 ft 359 kts 136°
2026-04-30 12:29 -54.92795 -67.82550 14716 ft 353 kts 149°
2026-04-30 12:30 -54.95089 -67.81109 15182 ft 353 kts 171°
2026-04-30 12:30 -54.97537 -67.81233 15709 ft 355 kts 192°
2026-04-30 12:30 -54.99806 -67.82933 16214 ft 359 kts 212°
2026-04-30 12:30 -55.01571 -67.86021 16720 ft 366 kts 234°
2026-04-30 12:31 -55.02558 -67.90132 17226 ft 374 kts 256°
2026-04-30 12:31 -55.02559 -67.94695 17702 ft 383 kts 279°
2026-04-30 12:31 -55.01506 -67.98984 18120 ft 392 kts 303°
2026-04-30 12:31 -54.99658 -68.02510 18574 ft 396 kts 314°
2026-04-30 12:32 -54.97634 -68.05784 19034 ft 400 kts 317°
2026-04-30 12:32 -54.95560 -68.09049 19470 ft 404 kts 317°
2026-04-30 12:32 -54.93515 -68.12434 19922 ft 408 kts 315°
2026-04-30 12:32 -54.91470 -68.15881 20368 ft 412 kts 316°
2026-04-30 12:33 -54.89405 -68.19268 20819 ft 415 kts 317°
2026-04-30 12:33 -54.87282 -68.22698 21271 ft 419 kts 317°
2026-04-30 12:33 -54.85152 -68.26178 21801 ft 421 kts 316°
2026-04-30 12:33 -54.83070 -68.29767 22178 ft 425 kts 312°
2026-04-30 12:34 -54.81096 -68.33614 22627 ft 428 kts 311°
2026-04-30 12:34 -54.79118 -68.37481 23040 ft 432 kts 311°
2026-04-30 12:34 -54.77092 -68.41365 23456 ft 434 kts 312°
2026-04-30 12:34 -54.75056 -68.45242 23874 ft 436 kts 312°
2026-04-30 12:35 -54.73023 -68.49150 24295 ft 438 kts 311°
2026-04-30 12:35 -54.70981 -68.53084 24707 ft 440 kts 311°
2026-04-30 12:35 -54.68952 -68.56963 25124 ft 442 kts 312°
2026-04-30 12:35 -54.66859 -68.60878 25533 ft 445 kts 314°
2026-04-30 12:36 -54.64495 -68.64320 26057 ft 443 kts 320°
2026-04-30 12:36 -54.62100 -68.67678 26488 ft 445 kts 319°
2026-04-30 12:36 -54.59714 -68.71119 26889 ft 448 kts 319°
2026-04-30 12:36 -54.57308 -68.74555 27297 ft 451 kts 319°
2026-04-30 12:37 -54.54859 -68.77981 27706 ft 454 kts 320°
2026-04-30 12:37 -54.52399 -68.81424 28112 ft 457 kts 320°
2026-04-30 12:37 -54.49932 -68.84913 28503 ft 460 kts 319°
2026-04-30 12:37 -54.47458 -68.88408 28937 ft 462 kts 320°
2026-04-30 12:38 -54.44987 -68.91867 29307 ft 466 kts 320°
2026-04-30 12:38 -54.42471 -68.95378 29700 ft 466 kts 319°
2026-04-30 12:38 -54.39953 -68.98901 30054 ft 468 kts 319°
2026-04-30 12:38 -54.37425 -69.02440 30420 ft 469 kts 319°
2026-04-30 12:39 -54.34905 -69.05952 30953 ft 466 kts 319°
2026-04-30 12:39 -54.32389 -69.09448 31428 ft 465 kts 319°
2026-04-30 12:39 -54.29883 -69.12930 31913 ft 464 kts 319°
2026-04-30 12:39 -54.27380 -69.16406 32406 ft 463 kts 319°
2026-04-30 12:40 -54.24878 -69.19870 32944 ft 462 kts 319°
2026-04-30 12:40 -54.22384 -69.23316 33575 ft 460 kts 319°
2026-04-30 12:40 -54.19897 -69.26750 34123 ft 459 kts 319°
2026-04-30 12:40 -54.17444 -69.30133 34638 ft 459 kts 319°
2026-04-30 12:41 -54.14961 -69.33550 35158 ft 458 kts 319°
2026-04-30 12:41 -54.12456 -69.36991 35292 ft 468 kts 319°
2026-04-30 12:41 -54.09886 -69.40522 35294 ft 481 kts 319°
2026-04-30 12:41 -54.07249 -69.44131 35300 ft 492 kts 319°
2026-04-30 12:42 -54.01796 -69.51575 35305 ft 513 kts 319°
2026-04-30 12:42 -53.96166 -69.59239 35314 ft 522 kts 319°
2026-04-30 12:43 -53.90484 -69.66943 35314 ft 524 kts 319°
2026-04-30 12:43 -53.84775 -69.74659 35315 ft 525 kts 319°
2026-04-30 12:44 -53.79103 -69.82294 35296 ft 524 kts 319°
2026-04-30 12:44 -53.73400 -69.89948 35295 ft 523 kts 319°
2026-04-30 12:45 -53.67692 -69.97578 35297 ft 524 kts 319°
2026-04-30 12:45 -53.61980 -70.05188 35297 ft 524 kts 319°
2026-04-30 12:46 -53.56262 -70.12778 35304 ft 522 kts 319°
2026-04-30 12:46 -53.50568 -70.20311 35312 ft 521 kts 319°
2026-04-30 12:47 -53.44898 -70.27785 35314 ft 522 kts 319°
2026-04-30 12:47 -53.39182 -70.35292 35348 ft 521 kts 319°
2026-04-30 12:48 -53.33478 -70.42758 35243 ft 513 kts 319°
2026-04-30 12:48 -53.31633 -70.45161 34767 ft 500 kts 319°
2026-04-30 12:48 -53.28952 -70.48650 34123 ft 478 kts 319°
2026-04-30 12:49 -53.26389 -70.51990 33505 ft 458 kts 319°
2026-04-30 12:49 -53.23918 -70.55210 32877 ft 444 kts 319°
2026-04-30 12:49 -53.21502 -70.58350 32286 ft 439 kts 319°
2026-04-30 12:49 -53.19071 -70.61506 31708 ft 447 kts 319°
2026-04-30 12:50 -53.15792 -70.65747 30900 ft 452 kts 319°
2026-04-30 12:50 -53.14110 -70.67915 30501 ft 451 kts 319°
2026-04-30 12:50 -53.11631 -70.71112 29909 ft 452 kts 319°
2026-04-30 12:50 -53.09180 -70.74274 29300 ft 450 kts 319°
2026-04-30 12:51 -53.06725 -70.77432 28675 ft 444 kts 319°
2026-04-30 12:51 -53.04289 -70.80558 28093 ft 439 kts 319°
2026-04-30 12:51 -53.01877 -70.83652 27516 ft 437 kts 319°
2026-04-30 12:51 -52.99569 -70.86867 26926 ft 430 kts 313°
2026-04-30 12:52 -52.97457 -70.90353 26378 ft 426 kts 311°
2026-04-30 12:52 -52.95381 -70.93822 25804 ft 423 kts 311°
2026-04-30 12:52 -52.93287 -70.97247 25264 ft 422 kts 312°
2026-04-30 12:52 -52.91197 -71.00623 24714 ft 418 kts 313°
2026-04-30 12:53 -52.89163 -71.03940 24175 ft 414 kts 312°
2026-04-30 12:53 -52.87125 -71.07284 23635 ft 411 kts 312°
2026-04-30 12:53 -52.85098 -71.10590 23099 ft 408 kts 312°
2026-04-30 12:53 -52.83080 -71.13859 22527 ft 404 kts 312°
2026-04-30 12:54 -52.81083 -71.17098 21997 ft 401 kts 312°
2026-04-30 12:54 -52.79098 -71.20323 21472 ft 399 kts 313°
2026-04-30 12:54 -52.77122 -71.23523 20959 ft 396 kts 313°
2026-04-30 12:54 -52.75160 -71.26692 20435 ft 393 kts 312°
2026-04-30 12:55 -52.73248 -71.29778 19939 ft 387 kts 311°
2026-04-30 12:55 -52.71324 -71.32886 19431 ft 388 kts 313°
2026-04-30 12:55 -52.69400 -71.35987 18922 ft 386 kts 312°
2026-04-30 12:55 -52.67484 -71.39067 18415 ft 384 kts 313°
2026-04-30 12:56 -52.65576 -71.42132 17917 ft 382 kts 314°
2026-04-30 12:56 -52.63678 -71.45176 17388 ft 380 kts 313°
2026-04-30 12:56 -52.61794 -71.48196 17018 ft 374 kts 313°
2026-04-30 12:56 -52.59918 -71.51200 16870 ft 380 kts 313°
2026-04-30 12:57 -52.58029 -71.54221 16393 ft 377 kts 312°
2026-04-30 12:57 -52.56154 -71.57213 15896 ft 374 kts 313°
2026-04-30 12:57 -52.54290 -71.60183 15403 ft 373 kts 313°
2026-04-30 12:57 -52.52436 -71.63138 14912 ft 369 kts 314°
2026-04-30 12:58 -52.50620 -71.66025 14444 ft 369 kts 313°
2026-04-30 12:58 -52.48783 -71.68943 13959 ft 365 kts 314°
2026-04-30 12:58 -52.46962 -71.71833 13476 ft 362 kts 314°
2026-04-30 12:58 -52.45160 -71.74689 12979 ft 360 kts 314°
2026-04-30 12:59 -52.43362 -71.77534 12497 ft 359 kts 314°
2026-04-30 12:59 -52.41571 -71.80365 12037 ft 356 kts 313°
2026-04-30 12:59 -52.39797 -71.83166 11569 ft 353 kts 313°
2026-04-30 12:59 -52.38034 -71.85946 11113 ft 351 kts 311°
2026-04-30 13:00 -52.36312 -71.88658 10653 ft 346 kts 310°
2026-04-30 13:00 -52.34587 -71.91370 10212 ft 342 kts 311°
2026-04-30 13:00 -52.32896 -71.94029 9769 ft 333 kts 311°
2026-04-30 13:00 -52.31236 -71.96635 9326 ft 328 kts 311°
2026-04-30 13:01 -52.29597 -71.99209 8872 ft 326 kts 311°
2026-04-30 13:01 -52.27969 -72.01762 8439 ft 323 kts 311°
2026-04-30 13:01 -52.26354 -72.04286 8012 ft 320 kts 311°
2026-04-30 13:01 -52.24774 -72.06749 7596 ft 302 kts 311°
2026-04-30 13:02 -52.23308 -72.09025 7211 ft 289 kts 310°
2026-04-30 13:02 -52.21765 -72.11141 6907 ft 290 kts 323°
2026-04-30 13:02 -52.19915 -72.12605 6945 ft 288 kts 329°
2026-04-30 13:02 -52.18180 -72.13920 6944 ft 264 kts 328°
2026-04-30 13:03 -52.16553 -72.15198 6953 ft 272 kts 327°
2026-04-30 13:03 -52.14842 -72.16539 6960 ft 271 kts 328°
2026-04-30 13:03 -52.13132 -72.17843 6964 ft 271 kts 328°
2026-04-30 13:03 -52.11425 -72.19149 6964 ft 271 kts 328°
2026-04-30 13:04 -52.09724 -72.20459 6960 ft 270 kts 328°
2026-04-30 13:04 -52.08023 -72.21769 6887 ft 271 kts 328°
2026-04-30 13:04 -52.06313 -72.23081 6690 ft 272 kts 328°
2026-04-30 13:04 -52.04610 -72.24384 6465 ft 270 kts 328°
2026-04-30 13:05 -52.02920 -72.25676 6233 ft 268 kts 328°
2026-04-30 13:05 -52.01241 -72.26962 6000 ft 266 kts 328°
2026-04-30 13:05 -51.99592 -72.28225 5769 ft 265 kts 328°
2026-04-30 13:06 -51.96275 -72.30757 5298 ft 262 kts 328°
2026-04-30 13:06 -51.94629 -72.32013 5069 ft 261 kts 327°
2026-04-30 13:06 -51.92991 -72.33261 4840 ft 260 kts 327°
2026-04-30 13:06 -51.91359 -72.34504 4607 ft 258 kts 328°
2026-04-30 13:07 -51.89746 -72.35730 4390 ft 255 kts 328°
2026-04-30 13:07 -51.88164 -72.36893 4155 ft 242 kts 332°
2026-04-30 13:07 -51.86519 -72.37270 3885 ft 238 kts 356°
2026-04-30 13:07 -51.84915 -72.36991 3723 ft 226 kts 359°
2026-04-30 13:08 -51.83365 -72.36732 3547 ft 222 kts 359°
2026-04-30 13:08 -51.81829 -72.36487 3364 ft 222 kts 359°
2026-04-30 13:08 -51.80297 -72.36230 3178 ft 220 kts 359°
2026-04-30 13:08 -51.78802 -72.35975 2982 ft 214 kts 359°
2026-04-30 13:09 -51.77315 -72.35729 2787 ft 215 kts 359°
2026-04-30 13:09 -51.75835 -72.35540 2589 ft 211 kts 353°
2026-04-30 13:09 -51.74417 -72.35968 2383 ft 204 kts 335°
2026-04-30 13:09 -51.73230 -72.36948 2234 ft 180 kts 320°
2026-04-30 13:10 -51.72343 -72.38239 2078 ft 165 kts 307°
2026-04-30 13:10 -51.71748 -72.39626 1936 ft 136 kts 296°
2026-04-30 13:10 -51.71317 -72.40857 1746 ft 115 kts 296°
2026-04-30 13:10 -51.70931 -72.41942 1594 ft 108 kts 295°
2026-04-30 13:11 -51.70567 -72.42970 1468 ft 104 kts 295°
2026-04-30 13:11 -51.70216 -72.43965 1332 ft 103 kts 295°
2026-04-30 13:11 -51.69856 -72.44986 1193 ft 103 kts 296°
2026-04-30 13:11 -51.69495 -72.46007 1053 ft 106 kts 297°
2026-04-30 13:12 -51.69125 -72.47048 913 ft 108 kts 297°
2026-04-30 13:12 -51.68756 -72.48119 759 ft 110 kts 298°
2026-04-30 13:12 -51.68385 -72.49181 628 ft 110 kts 300°
2026-04-30 13:13 -51.67625 -72.51303 321 ft 108 kts 300°
2026-04-30 13:13 -51.67259 -72.52333 225 ft 99 kts 300°
2026-04-30 13:13 -51.66785 -72.53673 219 ft 30 kts 299°
2026-04-30 13:14 -51.66716 -72.53917 217 ft 15 kts 279°
2026-04-30 13:14 -51.66695 -72.53936 217 ft 3 kts 95°
2026-04-30 13:14 -51.66883 -72.53398 219 ft 38 kts 120°
2026-04-30 13:15 -51.66991 -72.53093 219 ft 21 kts 116°
2026-04-30 13:15 -51.66872 -72.52943 219 ft 2 kts 307°
2026-04-30 13:15 -51.66865 -72.52963 219 ft 2 kts 304°
2026-04-30 13:16 -51.66860 -72.52972 219 ft 0 kts 310°